This is the latest recevied weather packets stored in our database for station/object DO1SC. If no packets are shown the sender has not sent any weather packets the latest 10 day(s).
| Time | Temp. | Humidity | Pressure | Rain* | Wind** | Luminosity | Snow |
|---|---|---|---|---|---|---|---|
| 1777046723 | 15° C | 43% | 1019.1 hPa | - | - | 96 W/m² | - |
| 1777046135 | 14.44° C | 44% | 1019.2 hPa | - | - | 62 W/m² | - |
| 1777045526 | 14.44° C | 42% | 1019.3 hPa | - | - | 61 W/m² | - |
| 1777044918 | 15° C | 41% | 1019.3 hPa | - | - | 67 W/m² | - |
| 1777044329 | 15° C | 42% | 1019.4 hPa | - | - | 70 W/m² | - |
| 1777043723 | 15° C | 42% | 1019.5 hPa | - | - | 237 W/m² | - |
| 1777043132 | 15° C | 42% | 1019.4 hPa | - | - | 292 W/m² | - |
| 1777042524 | 15° C | 41% | 1019.5 hPa | - | - | 339 W/m² | - |
| 1777041936 | 15° C | 40% | 1019.5 hPa | - | - | 351 W/m² | - |
| 1777041327 | 15° C | 41% | 1019.5 hPa | - | - | 372 W/m² | - |
| 1777040719 | 14.44° C | 41% | 1019.7 hPa | - | - | 380 W/m² | - |
| 1777040130 | 14.44° C | 41% | 1019.7 hPa | - | - | 425 W/m² | - |
| 1777039522 | 14.44° C | 42% | 1019.7 hPa | - | - | 423 W/m² | - |
| 1777038934 | 14.44° C | 43% | 1019.9 hPa | - | - | 459 W/m² | - |
| 1777038325 | 14.44° C | 41% | 1019.8 hPa | - | - | 453 W/m² | - |
| 1777037717 | 14.44° C | 42% | 1019.8 hPa | - | - | 478 W/m² | - |
| 1777037131 | 14.44° C | 40% | 1019.8 hPa | - | - | 519 W/m² | - |
| 1777036520 | 13.89° C | 41% | 1019.9 hPa | - | - | 542 W/m² | - |
| 1777035931 | 13.89° C | 44% | 1019.9 hPa | - | - | 526 W/m² | - |
| 1777035323 | 13.89° C | 43% | 1020 hPa | - | - | 436 W/m² | - |
| 1777034734 | 13.89° C | 45% | 1019.9 hPa | - | - | 598 W/m² | - |
| 1777034129 | 13.89° C | 46% | 1020 hPa | - | - | 613 W/m² | - |
| 1777033517 | 13.89° C | 48% | 1020 hPa | - | - | 622 W/m² | - |
| 1777032929 | 13.89° C | 47% | 1020.1 hPa | - | - | 635 W/m² | - |
| 1777032321 | 13.33° C | 47% | 1020.3 hPa | - | - | 640 W/m² | - |
* Rain since midnight (hover to see other rain measurements)
** Current wind speed in m/s (hover to see current wind gust speed)